National Weather Service United States Department of Commerce

Latest Hourly Weather Roundup

TOPSWRTT 000
TTAA00 KICT 191112

Wichita AWIPS Roundup
National Weather Service Wichita KS
600 AM CDT THU SEP 19 2019

....Central Kansas....
  
CITY           SKY/WX    TMP DP  RH WIND       PRES   REMARKS
RUSSELL        CLEAR     72  66  81 S12       29.94S                  
SALINA         CLEAR     71  66  84 SE6       29.95S                  
GREAT BEND     CLEAR     69  66  90 S8        29.96F                  
ELLSWORTH      CLEAR     72  64  78 SE3       29.95S                  
LYONS          FAIR      68  66  92 SE8       29.96S                  
MCPHERSON      CLEAR     70  66  88 S5        29.96S                  
HAYS           CLEAR     68  65  90 SE6       29.95S                  

....South Central Kansas....
  
CITY           SKY/WX    TMP DP  RH WIND       PRES   REMARKS
HUTCHINSON     CLEAR     70  66  87 S3        29.96S                  
NEWTON           N/A     69  67  93 S7        29.97F                  
KINGMAN        CLEAR     72  68  88 CALM      29.97R                  
WICHITA (ICT)  CLEAR     72  67  84 SE6       29.96S                  
JABARA ARPT    CLEAR     70  68  93 SE3       29.97S                  
BEECH ARPT     FAIR      69  66  90 CALM      29.97S                  
MCCONNELL AFB  CLEAR     72  65  80 E6        29.97S                  
BENTON         FAIR      68  67  94 S10       29.98S                  
EL DORADO      FAIR      72  68  88 S6        29.97S                  
AUGUSTA        FAIR      68  68 100 SE5       29.98R                  
HARPER         NOT AVBL                                               
WELLINGTON     CLEAR     70  68  94 SE3       29.96S                  
WINFIELD       CLEAR     72  68  87 SE3       29.98R                  
 
....Southeast Kansas....
  
CITY           SKY/WX    TMP DP  RH WIND       PRES   REMARKS
EUREKA         CLEAR     67  67  98 S3        29.98R FOG              
IOLA           FAIR     N/A N/A N/A SE7       29.99R                  
CHANUTE        CLEAR     72  68  87 SE6       29.98R                  
PARSONS        CLEAR     71  69  93 CALM      29.98S                  
COFFEYVILLE    CLEAR     70  67  90 SE3       29.96R                  
INDEPENDENCE   CLEAR     69  68  94 CALM      29.97S                  
FORT SCOTT     CLEAR     72  68  88 CALM      29.98R                  
PITTSBURG      CLEAR     71  67  87 CALM      29.98S                  

....Western Kansas....
  
CITY           SKY/WX    TMP DP  RH WIND       PRES   REMARKS
GOODLAND       CLEAR     54  53  97 N5        29.96S                  
HILL CITY      CLEAR     69  64  84 SW3       29.94F                  
LIBERAL        CLEAR     64  61  90 S7        29.99S                  
GARDEN CITY    CLEAR     65  63  93 S7        29.97S                  
DODGE CITY     CLEAR     70  66  87 S8        29.98S                  
PRATT          CLEAR     69  66  90 S7        29.98R                  
MEDICINE LODGE   N/A     71  68  90 SE5       29.96S                  

....Northeast Kansas....
  
CITY           SKY/WX    TMP DP  RH WIND       PRES   REMARKS
CONCORDIA      CLOUDY    76  68  76 S16       29.94S                  
TOPEKA         CLEAR     70  67  90 CALM      29.96S                  
MANHATTAN      CLEAR     70  67  90 SW3       29.95S                  
LAWRENCE       CLEAR     66  65  96 CALM      29.96S FOG              
OLATHE         CLEAR     71  68  90 S3        29.98S                  
EMPORIA        CLEAR     69  68  96 S6        29.96S                  

....Oklahoma....
  
CITY           SKY/WX    TMP DP  RH WIND       PRES   REMARKS
GAGE           CLEAR     71  65  81 S8        29.98S                  
PONCA CITY     CLEAR     75  68  78 CALM      29.95S                  
BARTLESVILLE   CLEAR     68  67  96 CALM      29.97S FOG              
TULSA          CLEAR     73  71  93 E5        29.94S                  
OKLAHOMA CITY  MOCLDY    70  70 100 SE7       29.95S                  

Note: "fair" indicates few or no clouds below 12,000 feet with no
significant weather and/or obstructions to visibility.